World > North America > United States > New York

Hourly Morristown, NY Regional Weather

Feedback E-mail the Weather

Latest News

Morristown, NY Weather Maps

°F °C°F °C
Morristown Weather Map
UTC Time: 5/27/2022, 05:36
Your Time:

Morristown, NY Regional Weather

Expires:202205270600;;635439
ASUS41 KBTV 270530
RWRBTV
VERMONT REGIONAL WEATHER ROUNDUP
NATIONAL WEATHER SERVICE BURLINGTON VT
100 AM EDT FRI MAY 27 2022

NOTE: "FAIR" INDICATES FEW OR NO CLOUDS BELOW 12,000 FEET WITH NO 
SIGNIFICANT WEATHER AND/OR OBSTRUCTIONS TO VISIBILITY.

* THESE REPORTS ARE NOT UNDER NWS QUALITY CONTROL AND/OR DO NOT
  REPORT WEATHER SUCH AS PRECIPITATION AND FOG.


NYZ007-026>031-035-052-083-087-270600-
_____NORTHERN NEW YORK_
  
CITY           SKY/WX    TMP DP  RH WIND       PRES   REMARKS
PLATTSBURGH    CLOUDY    64  54  69 SE8       29.87F                  
SARANAC LAKE   MOCLDY    64  57  78 SW16G24   29.92F                  
MASSENA        CLOUDY    71  58  63 SW13G24   29.85S                  
OGDENSBURG*    CLOUDY    70  59  68 S9        29.83F                  
POTSDAM*       CLOUDY    68  59  73 S13G20    29.86F                  
WATERTOWN      LGT RAIN  68  59  73 S14G28    29.87S                  
FT DRUM        CLOUDY    69  59  69 S20G28    29.87F                  
ALBANY         CLOUDY    66  57  72 SE10G20   30.02F                  
GLENS FALLS    CLOUDY    65  56  72 S13G18    30.00F                  

$$

SKY/WX - Weather  TMP - Temperature  DP - Dew Point  RH - Humidity
WIND - Wind Direction/Speed PRES - Barometric Pressure VSB - Visibility
WCI - Wind Chill Index E13G22 Wind - East Wind 13 mph/Gusts of 22 mph

Trending Headlines

Morristown Radar Loop



Morristown Quick Facts


National Two Day Weather Forecast


E-mail the Morristown Weather Forecast

Voice your opinion or tell us about page issues...